Location: Bennemühlen
(52.5740°N, 9.7135°E)
Time: 21:13:14
(UTC+00:00)

Tiros 1 despin weight - Pass Details

Date: 23 February 2026
Orbit: 556 x 593 km, 48.2° (Epoch: 8 March)

Event Time Altitude Azimuth Distance (km) Brightness Sun altitude
Rises 15:39:34 0° 266° (W) 2,743 ? 8.9°
Reaches altitude 10° 15:41:53 10° 260° (W) 1,843 ? 8.6°
Maximum altitude 15:45:53 43° 188° (S) 782 ? 8.1°
Drops below altitude 10° 15:49:51 10° 117° (ESE) 1,836 ? 7.5°
Sets 15:52:10 0° 110° (ESE) 2,731 ? 7.2°
